Hourly Weather Dzialki

Today, 6 May, Thursday

Time Temperature Precipitation Wind Pressure Humidity
00:00 +3°C° 0 mm 7 mps 733 mmHg 87%
01:00 +2°C° 0 mm 6 mps 734 mmHg 87%
02:00 +2°C° 0 mm 6 mps 734 mmHg 87%
03:00 +1°C° 0 mm 6 mps 735 mmHg 87%
04:00 +1°C° 0 mm 6 mps 735 mmHg 87%
05:00 +2°C° 0 mm 6 mps 736 mmHg 80%
06:00 +3°C° 0 mm 6 mps 736 mmHg 74%
07:00 +4°C° 0 mm 7 mps 737 mmHg 68%
08:00 +5°C° 0 mm 7 mps 737 mmHg 61%
09:00 +8°C° 0 mm 7 mps 737 mmHg 54%
10:00 +9°C° 0 mm 7 mps 737 mmHg 47%
11:00 +10°C° 0 mm 6 mps 736 mmHg 45%
12:00 +11°C° 0 mm 6 mps 736 mmHg 43%
13:00 +13°C° 0 mm 6 mps 735 mmHg 41%
14:00 +11°C° 0.1 mm 6 mps 735 mmHg 49%
15:00 +10°C° 0.1 mm 6 mps 735 mmHg 57%
16:00 +9°C° 0.1 mm 6 mps 735 mmHg 65%
17:00 +9°C° 0.1 mm 6 mps 735 mmHg 69%
18:00 +8°C° 0.1 mm 6 mps 734 mmHg 73%
19:00 +8°C° 0.1 mm 6 mps 734 mmHg 77%
20:00 +6°C° 0.2 mm 7 mps 734 mmHg 78%
21:00 +6°C° 0.2 mm 7 mps 734 mmHg 79%
22:00 +6°C° 0.2 mm 8 mps 734 mmHg 80%
23:00 +6°C° 0.1 mm 7 mps 734 mmHg 81%

Tomorrow, 7 May, Friday

Time Temperature Precipitation Wind Pressure Humidity
00:00 +5°C° 0.1 mm 6 mps 734 mmHg 82%
01:00 +5°C° 0.1 mm 6 mps 734 mmHg 82%
02:00 +5°C° 0 mm 6 mps 733 mmHg 83%
03:00 +5°C° 0 mm 6 mps 733 mmHg 83%
04:00 +6°C° 0 mm 5 mps 733 mmHg 84%
05:00 +7°C° 0.1 mm 5 mps 733 mmHg 84%
06:00 +7°C° 0.1 mm 4 mps 734 mmHg 84%
07:00 +7°C° 0.1 mm 4 mps 734 mmHg 85%
08:00 +7°C° 0.5 mm 4 mps 735 mmHg 87%
09:00 +6°C° 0.5 mm 4 mps 735 mmHg 89%
10:00 +5°C° 0.5 mm 4 mps 736 mmHg 91%
11:00 +5°C° 0.3 mm 4 mps 737 mmHg 90%
12:00 +5°C° 0.3 mm 4 mps 737 mmHg 88%
13:00 +5°C° 0.3 mm 4 mps 738 mmHg 87%
14:00 +6°C° 0.1 mm 4 mps 738 mmHg 81%
15:00 +8°C° 0.1 mm 3 mps 738 mmHg 75%
16:00 +9°C° 0.1 mm 3 mps 739 mmHg 70%
17:00 +8°C° 0 mm 3 mps 739 mmHg 72%
18:00 +7°C° 0 mm 2 mps 739 mmHg 75%
19:00 +7°C° 0 mm 2 mps 740 mmHg 77%
20:00 +6°C° 0 mm 2 mps 740 mmHg 81%
21:00 +5°C° 0 mm 2 mps 740 mmHg 85%
22:00 +5°C° 0 mm 2 mps 740 mmHg 89%
23:00 +5°C° 0 mm 2 mps 740 mmHg 90%

Day after tomorrow, 8 May, Saturday

Time Temperature Precipitation Wind Pressure Humidity
00:00 +5°C° 0 mm 2 mps 740 mmHg 92%
01:00 +5°C° 0 mm 2 mps 740 mmHg 93%
02:00 +4°C° 0 mm 3 mps 739 mmHg 92%
03:00 +4°C° 0 mm 3 mps 739 mmHg 91%
04:00 +4°C° 0 mm 3 mps 739 mmHg 89%
05:00 +4°C° 0.3 mm 3 mps 738 mmHg 90%
06:00 +5°C° 0.3 mm 3 mps 738 mmHg 91%
07:00 +5°C° 0.3 mm 3 mps 738 mmHg 91%
08:00 +6°C° 0.3 mm 4 mps 737 mmHg 89%
09:00 +6°C° 0.3 mm 5 mps 737 mmHg 87%
10:00 +7°C° 0.3 mm 5 mps 736 mmHg 85%
11:00 +10°C° 0 mm 6 mps 736 mmHg 78%
12:00 +14°C° 0 mm 7 mps 735 mmHg 72%
13:00 +17°C° 0 mm 8 mps 735 mmHg 65%
14:00 +17°C° 0 mm 7 mps 735 mmHg 67%
15:00 +17°C° 0 mm 7 mps 734 mmHg 68%
16:00 +17°C° 0 mm 7 mps 734 mmHg 70%
17:00 +17°C° 0 mm 7 mps 734 mmHg 72%
18:00 +16°C° 0 mm 6 mps 734 mmHg 75%
19:00 +16°C° 0 mm 6 mps 734 mmHg 77%
20:00 +15°C° 0 mm 5 mps 733 mmHg 79%
21:00 +14°C° 0 mm 5 mps 733 mmHg 81%
22:00 +13°C° 0 mm 5 mps 732 mmHg 84%
23:00 +13°C° 0 mm 4 mps 732 mmHg 86%

9 May, Sunday

Time Temperature Precipitation Wind Pressure Humidity
00:00 +12°C° 0 mm 4 mps 732 mmHg 88%
01:00 +11°C° 0 mm 3 mps 732 mmHg 90%

10 May, Monday

Time Temperature Precipitation Wind Pressure Humidity

11 May, Tuesday

Time Temperature Precipitation Wind Pressure Humidity
Show more